Left ArrowRight Arrow

34.16533, -84.80231

Hourly Observations for July 12, 2021

Temp ( °F °C ) Dew Point ( °F °C ) Humidity (%) Winds ( mph kmh ) Pressure ( in mb ) Visibility ( mi km ) Precip ( " mm )
12:15 am 00:15 Mostly Clear 73 23 70 21 89 89 SE 6 9 30.06 1018 10 16 0.00 0.00
12:35 am 00:35 Clear 73 23 70 21 89 89 SSE 7 11 30.06 1018 10 16 0.00 0.00
12:55 am 00:55 Clear 73 23 70 21 89 89 VRB 6 9 30.06 1018 10 16 0.00 0.00
1:15 am 01:15 Clear 73 23 70 21 89 89 Calm 30.06 1018 10 16 0.00 0.00
1:35 am 01:35 Clear 73 23 70 21 89 89 Calm 30.06 1018 10 16 0.00 0.00
1:55 am 01:55 Clear 72 22 70 21 94 94 Calm 30.07 1018 10 16 0.00 0.00
2:15 am 02:15 Mostly Cloudy 72 22 70 21 94 94 Calm 30.08 1019 10 16 0.00 0.00
2:35 am 02:35 Mostly Cloudy 72 22 70 21 94 94 Calm 30.08 1019 10 16 0.00 0.00
2:55 am 02:55 Mostly Cloudy 72 22 70 21 94 94 Calm 30.09 1019 10 16 0.00 0.00
3:15 am 03:15 Mostly Cloudy 72 22 70 21 94 94 Calm 30.09 1019 10 16 0.00 0.00
3:35 am 03:35 Cloudy 72 22 70 21 94 94 Calm 30.09 1019 10 16 0.00 0.00
3:55 am 03:55 Cloudy 72 22 70 21 94 94 Calm 30.10 1019 10 16 0.00 0.00
4:15 am 04:15 Cloudy 72 22 70 21 94 94 Calm 30.10 1019 10 16 0.00 0.00
4:35 am 04:35 Cloudy 72 22 70 21 94 94 Calm 30.11 1020 10 16 0.00 0.00
4:55 am 04:55 Cloudy 72 22 70 21 94 94 VRB 3 6 30.11 1020 10 16 0.00 0.00
5:15 am 05:15 Cloudy 72 22 70 21 94 94 SE 5 7 30.11 1020 10 16 0.00 0.00
5:35 am 05:35 Cloudy 72 22 68 20 88 88 SE 3 6 30.11 1020 10 16 0.00 0.00
5:55 am 05:55 Cloudy 72 22 68 20 88 88 Calm 30.12 1020 10 16 0.00 0.00
6:15 am 06:15 Mostly Cloudy 72 22 68 20 88 88 Calm 30.12 1020 10 16 0.00 0.00
6:35 am 06:35 Mostly Cloudy 70 21 68 20 94 94 Calm 30.12 1020 10 16 0.00 0.00
6:55 am 06:55 Cloudy 70 21 68 20 94 94 E 3 6 30.12 1020 10 16 0.00 0.00
7:15 am 07:15 Mostly Cloudy 72 22 70 21 94 94 Calm 30.12 1020 10 16 0.00 0.00
7:35 am 07:35 Mostly Sunny 72 22 68 20 88 88 Calm 30.13 1020 10 16 0.00 0.00
7:55 am 07:55 Mostly Sunny 72 22 68 20 88 88 Calm 30.14 1021 10 16 0.00 0.00
8:15 am 08:15 Mostly Sunny 72 22 70 21 94 94 Calm 30.15 1021 10 16 0.00 0.00
8:35 am 08:35 Mostly Sunny 73 23 68 20 83 83 SSE 6 9 30.15 1021 10 16 0.00 0.00
8:55 am 08:55 Mostly Sunny 75 24 68 20 78 78 SSE 5 7 30.15 1021 10 16 0.00 0.00
9:15 am 09:15 Mostly Cloudy 75 24 70 21 83 83 Calm 30.15 1021 10 16 0.00 0.00
9:35 am 09:35 Partly Cloudy 77 25 70 21 79 79 VRB 6 9 30.16 1021 10 16 0.00 0.00
9:55 am 09:55 Mostly Sunny 79 26 70 21 74 74 S 8 13 30.16 1021 10 16 0.00 0.00
10:15 am 10:15 Mostly Sunny 79 26 70 21 74 74 S 8 13 30.16 1021 10 16 0.00 0.00
10:35 am 10:35 Mostly Sunny 79 26 70 21 74 74 SSW 8 13 30.16 1021 10 16 0.00 0.00
10:55 am 10:55 Partly Cloudy 79 26 70 21 74 74 S 7 11 30.17 1022 10 16 0.00 0.00
11:15 am 11:15 Mostly Cloudy 79 26 70 21 74 74 SSW 5 7 30.17 1022 10 16 0.00 0.00
11:35 am 11:35 Mostly Cloudy 81 27 70 21 70 70 S 7 11 30.16 1021 10 16 0.00 0.00
11:55 am 11:55 Partly Cloudy 81 27 70 21 70 70 S 9 15 30.16 1021 10 16 0.00 0.00
12:15 pm 12:15 Mostly Cloudy 82 28 70 21 66 66 S 12 19 30.16 1021 10 16 0.00 0.00
12:35 pm 12:35 Partly Cloudy 82 28 70 21 66 66 S 10 17 30.16 1021 10 16 0.00 0.00
12:55 pm 12:55 Mostly Cloudy 82 28 72 22 70 70 S 8 13 30.15 1021 10 16 0.00 0.00
1:15 pm 13:15 Mostly Sunny 82 28 72 22 70 70 SSW 9 15 30.14 1021 10 16 0.00 0.00
1:35 pm 13:35 Sunny 84 29 68 20 58 58 S 9 15 30.14 1021 10 16 0.00 0.00
1:55 pm 13:55 Sunny 84 29 72 22 66 66 S 9 15 30.13 1020 10 16 0.00 0.00
2:15 pm 14:15 Sunny 84 29 72 22 66 66 VRB 6 9 30.12 1020 10 16 0.00 0.00
2:35 pm 14:35 Sunny 86 30 70 21 59 59 S 10 17 30.11 1020 10 16 0.00 0.00
2:55 pm 14:55 Mostly Sunny 88 31 70 21 55 55 SW 13 20 30.11 1020 10 16 0.00 0.00
3:15 pm 15:15 Mostly Cloudy with Nearby Thunderstorms 77 25 70 21 79 79 VRB 7 11 30.15 1021 4 6 0.00 0.00
3:35 pm 15:35 Mostly Cloudy with Nearby Thunderstorms 75 24 70 21 83 83 VRB 5 7 30.16 1021 9 14 0.00 0.00
3:55 pm 15:55 Partly Cloudy with Light Rain 75 24 72 22 89 89 VRB 6 9 30.16 1021 10 16 0.01 0.25
4:15 pm 16:15 Sunny with Light Rain 75 24 72 22 89 89 Calm 30.14 1021 6 10 0.00 0.00
4:35 pm 16:35 Sunny 75 24 72 22 89 89 Calm 30.14 1021 10 16 0.00 0.00
4:55 pm 16:55 Sunny with Light Rain 77 25 72 22 83 83 VRB 5 7 30.15 1021 10 16 0.00 0.00
5:15 pm 17:15 Sunny 77 25 72 22 83 83 VRB 3 6 30.13 1020 10 16 0.00 0.00
5:35 pm 17:35 Sunny 79 26 72 22 79 79 E 3 6 30.13 1020 10 16 0.00 0.00
5:55 pm 17:55 Sunny 79 26 72 22 79 79 VRB 5 7 30.13 1020 10 16 0.00 0.00
6:15 pm 18:15 Sunny 81 27 72 22 74 74 SSE 5 7 30.12 1020 10 16 0.00 0.00
6:35 pm 18:35 Sunny 81 27 72 22 74 74 SE 6 9 30.12 1020 10 16 0.00 0.00
6:55 pm 18:55 Sunny 81 27 70 21 70 70 SSE 9 15 30.12 1020 10 16 0.00 0.00
7:15 pm 19:15 Sunny 79 26 68 20 70 70 SSE 6 9 30.13 1020 10 16 0.00 0.00
7:35 pm 19:35 Sunny 81 27 70 21 70 70 SSE 5 7 30.12 1020 10 16 0.00 0.00
7:55 pm 19:55 Mostly Sunny 79 26 70 21 74 74 SSE 3 6 30.15 1021 10 16 0.00 0.00
8:15 pm 20:15 Mostly Cloudy 79 26 70 21 74 74 SE 5 7 30.16 1021 10 16 0.00 0.00
8:35 pm 20:35 Cloudy 79 26 70 21 74 74 SSE 3 6 30.16 1021 10 16 0.00 0.00
8:55 pm 20:55 Mostly Cloudy 77 25 72 22 83 83 WSW 6 9 30.16 1021 10 16 0.00 0.00
9:15 pm 21:15 Cloudy with Nearby Thunderstorms 75 24 70 21 83 83 S 12 19 30.19 1022 1 1 0.00 0.00
9:35 pm 21:35 Cloudy with Rain 72 22 70 21 94 94 SE 7 11 30.19 1022 2 3 0.00 0.00
9:55 pm 21:55 Cloudy with Light Rain 72 22 70 21 94 94 SSE 8 13 30.20 1023 10 16 0.48 12.19
10:15 pm 22:15 Cloudy with Light Rain 72 22 70 21 94 94 SSE 5 7 30.20 1023 7 11 0.00 0.00
10:35 pm 22:35 Cloudy with Light Rain 70 21 68 20 94 94 S 5 7 30.20 1023 9 14 0.00 0.00
10:55 pm 22:55 Partly Cloudy 70 21 68 20 94 94 SSE 3 6 30.20 1023 10 16 0.02 0.51
11:15 pm 23:15 Clear 70 21 68 20 94 94 Calm 30.20 1023 10 16 0.00 0.00
11:35 pm 23:35 Clear 68 20 68 20 100 100 Calm 30.19 1022 10 16 0.00 0.00
11:55 pm 23:55 Clear 70 21 68 20 94 94 Calm 30.19 1022 10 16 0.00 0.00

Powered by Vaisala Xweather